Morgantown, WV

6:34 PM EST on January 21, 2017 (GMT -0500)
Morgantown

Weather History for KMGW - February, 2014

Change the Weather History Date:

Thursday, February 20, 2014

  Actual Average Record
Temperature  
Mean Temperature 45 °F 35 °F  
Max Temperature 62 °F 44 °F 70 °F (1994)
Min Temperature 27 °F 26 °F -7 °F (2015)
Degree Days  
Heating Degree Days 20 30  
Month to date heating degree days 734 632  
Since 1 July heating degree days 3852 3659  
Cooling Degree Days 0 0  
Month to date cooling degree days 0 0  
Year to date cooling degree days 0 0  
Moisture  
Dew Point 35 °F    
Average Humidity 68    
Maximum Humidity 92    
Minimum Humidity 44    
Precipitation  
Precipitation 0.06 in 0.10 in 1.35 in (1981)
Month to date precipitation 2.86 1.82  
Year to date precipitation 4.68 4.63  
Sea Level Pressure  
Sea Level Pressure 29.95 in    
Wind  
Wind Speed 7 mph (SSE)    
Max Wind Speed 16 mph    
Max Gust Speed 24 mph    
Visibility 10 miles    
Events Rain    
T = Trace of Precipitation, MM = Missing Value Source: NWS Daily Summary

Daily Weather History Graph

Daily Weather History Graph

Search for Another Location

Airport or City:

Trip Planner

Search our weather history database for the weather conditions in past years. The results will help you decide how hot, cold, wet, or windy it might be!

Date:

Astronomy

Feb. 20, 2014 Rise Set
Actual Time 7:05 AM EST 6:01 PM EST
Civil Twilight 6:38 AM EST 6:29 PM EST
Nautical Twilight 6:06 AM EST 7:00 PM EST
Astronomical Twilight 5:35 AM EST 7:31 PM EST
Moon 11:53 PM EST (2/20) 9:48 AM EST (2/20)
Length of Visible Light 11h 51m
Length of Day
10h 56m
Waning Gibbous, 71% of the Moon is Illuminated
Feb 20
Waning Gibbous
Feb 22
Last Quarter
Mar 1
New
Mar 8
First Quarter
Mar 16
Full

Hourly Weather History & Observations

Time (EST) Temp. Windchill Dew Point Humidity Pressure Visibility Wind Dir Wind Speed Gust Speed Precip Events Conditions
12:53 AM 30.0 °F 26.5 °F 26.1 °F 85% 30.10 in 10.0 mi South 3.5 mph - N/A   Clear
1:53 AM 30.0 °F 26.5 °F 27.0 °F 88% 30.15 in 10.0 mi SW 3.5 mph - N/A   Clear
2:53 AM 28.0 °F 24.2 °F 26.1 °F 92% 30.14 in 9.0 mi East 3.5 mph - N/A   Clear
3:53 AM 28.9 °F 22.8 °F 26.1 °F 89% 30.13 in 9.0 mi East 5.8 mph - N/A   Clear
4:53 AM 30.9 °F 26.2 °F 26.1 °F 82% 30.11 in 10.0 mi NNE 4.6 mph - N/A   Clear
5:53 AM 28.0 °F - 25.0 °F 88% 30.13 in 10.0 mi Calm Calm - N/A   Clear
6:53 AM 33.1 °F - 26.1 °F 75% 30.10 in 10.0 mi Calm Calm - N/A   Clear
7:53 AM 33.1 °F 30.0 °F 26.1 °F 75% 30.07 in 10.0 mi ENE 3.5 mph - N/A   Scattered Clouds
8:53 AM 36.0 °F - 28.9 °F 76% 30.05 in 10.0 mi Calm Calm - N/A   Mostly Cloudy
9:53 AM 46.9 °F - 30.0 °F 52% 30.01 in 10.0 mi SE 9.2 mph - N/A   Scattered Clouds
10:53 AM 52.0 °F - 32.0 °F 47% 29.97 in 10.0 mi SSE 13.8 mph 24.2 mph N/A   Mostly Cloudy
11:53 AM 50.0 °F - 37.9 °F 63% 29.99 in 8.0 mi South 8.1 mph - 0.04 in Rain Light Rain
12:53 PM 52.0 °F - 39.9 °F 63% 29.93 in 10.0 mi Variable 6.9 mph - 0.02 in   Mostly Cloudy
1:53 PM 59.0 °F - 37.9 °F 46% 29.87 in 10.0 mi South 13.8 mph 24.2 mph N/A   Clear
2:53 PM 59.0 °F - 39.0 °F 48% 29.87 in 10.0 mi South 8.1 mph - N/A   Clear
3:53 PM 59.0 °F - 39.9 °F 49% 29.86 in 10.0 mi South 10.4 mph - N/A   Clear
4:53 PM 60.1 °F - 41.0 °F 49% 29.84 in 10.0 mi South 12.7 mph 20.7 mph N/A   Clear
5:53 PM 59.0 °F - 41.0 °F 51% 29.85 in 10.0 mi South 6.9 mph - N/A   Clear
6:53 PM 59.0 °F - 42.1 °F 53% 29.84 in 10.0 mi South 8.1 mph - N/A   Clear
7:53 PM 59.0 °F - 43.0 °F 55% 29.81 in 10.0 mi Variable 6.9 mph - N/A   Clear
8:53 PM 62.1 °F - 44.1 °F 52% 29.77 in 10.0 mi South 8.1 mph - N/A   Clear
9:53 PM 61.0 °F - 44.1 °F 54% 29.76 in 10.0 mi South 11.5 mph - N/A   Clear
10:53 PM 61.0 °F - 44.1 °F 54% 29.73 in 10.0 mi South 5.8 mph - N/A   Clear
11:53 PM 62.1 °F - 45.0 °F 53% 29.72 in 10.0 mi South 9.2 mph - N/A   Clear